"Pseudo-MPEC" for P11Cm4m

Created 2022 Dec 21 16:22:17 UT using Find_Orb

Click here for an explanation of pseudo-MPECs

 
 Astrometry: 
     P11Cm4m* C2022 12 01#Mih#),AstrometrymNI#jM?,JQJZs)Vredacted;RC!Jg!\Y5_`F51
     P11Cm4m  C2022 12 01$Mca3Vj74click4dS@4+En$hereN$1K[for8'=KW2u*u6r,Z/@nsF51
     P11Cm4m  C2022 12 01sia$4/]b4ngn)OGQlXcA914Elwe`J^O1==u%explanation/Hm#QF51

Station data:
(F51) Pan-STARRS 1, Haleakala  (N20.707234 W156.255910)  US/Hawaii.
   Observers J. Bulger, T. Lowe, A. Schultz, M. Willman. Measurers K.
   Chambers, S. Chastel, T. de Boer, L. Denneau, J. Fairlamb, H. Flewelling,
   M. Huber, C.-C. Lin, E. Magnier, Y. Ramanjooloo, R. Wainscoat, R. Weryk.
   1.8-m Ritchey-Chrétien + CCD.

Orbital elements:  P11Cm4m
   Perihelion 2023 Nov 19.55287 +/- 150 TT = 13:16:07 (JD 2460268.05287)
Epoch 2022 Dec  2.0 TT = JDT 2459915.5                           AutoNEOCP
M 282.30087654 +/- 80               (J2000 ecliptic)
n   0.22038999 +/- 0.48             Peri.   24.18448 +/- 100
a   2.71440598 +/- 3.94             Node   205.39334 +/- 50
e   0.1392601 +/- 0.225             Incl.   27.70197 +/- 38
P   4.47                   H 16.74  G  0.15   U 12.2  SR
q 2.33639732 +/- 0.838    Q 3.09241464 +/- 27.7
From 3 observations 2022 Dec. 1 (29.8 min); mean residual 0".01
Residuals in arcseconds: 
221201 F51  .01+  .00     221201 F51  .02-  .00     221201 F51  .01+  .00     

Ephemerides (geocentric):
Date (UTC) HH   RA             Dec           delta  r     elong  mag " sig PA
---- --------  ------------   ------------  ------ ------ -----  --- --------
2022 12 21 16  10 23 11.497   -21 40 05.68  2.2842 2.6569 101.2 21.7  61d 168
2022 12 21 17  10 23 12.413   -21 40 28.75  2.2837 2.6569 101.2 21.7  61d 168
2022 12 21 18  10 23 13.327   -21 40 51.81  2.2831 2.6568 101.3 21.7  61d 168
2022 12 21 19  10 23 14.239   -21 41 14.86  2.2826 2.6567 101.3 21.7  61d 168
2022 12 21 20  10 23 15.148   -21 41 37.90  2.2820 2.6567 101.3 21.7  61d 168
2022 12 21 21  10 23 16.055   -21 42 00.92  2.2815 2.6566 101.4 21.7  61d 168
2022 12 21 22  10 23 16.960   -21 42 23.93  2.2810 2.6566 101.4 21.7  61d 168
2022 12 21 23  10 23 17.863   -21 42 46.92  2.2804 2.6565 101.4 21.7  61d 168
2022 12 22 00  10 23 18.763   -21 43 09.91  2.2799 2.6564 101.5 21.7  61d 168
2022 12 22 01  10 23 19.661   -21 43 32.88  2.2794 2.6564 101.5 21.7  61d 168
2022 12 22 02  10 23 20.557   -21 43 55.84  2.2788 2.6563 101.5 21.7  61d 168
2022 12 22 03  10 23 21.451   -21 44 18.78  2.2783 2.6563 101.5 21.7  61d 168
2022 12 22 04  10 23 22.342   -21 44 41.72  2.2778 2.6562 101.6 21.7  61d 168
2022 12 22 05  10 23 23.231   -21 45 04.64  2.2772 2.6561 101.6 21.7  61d 168
2022 12 22 06  10 23 24.118   -21 45 27.54  2.2767 2.6561 101.6 21.7  61d 168
2022 12 22 07  10 23 25.003   -21 45 50.44  2.2761 2.6560 101.7 21.7  61d 168
2022 12 22 08  10 23 25.885   -21 46 13.32  2.2756 2.6559 101.7 21.7  61d 168
2022 12 22 09  10 23 26.765   -21 46 36.19  2.2751 2.6559 101.7 21.7  61d 168
2022 12 22 10  10 23 27.643   -21 46 59.04  2.2745 2.6558 101.8 21.7  61d 168
2022 12 22 11  10 23 28.519   -21 47 21.89  2.2740 2.6558 101.8 21.7  61d 168
2022 12 22 12  10 23 29.392   -21 47 44.72  2.2735 2.6557 101.8 21.7  61d 168
2022 12 22 13  10 23 30.263   -21 48 07.53  2.2729 2.6556 101.9 21.7  61d 168
2022 12 22 14  10 23 31.131   -21 48 30.34  2.2724 2.6556 101.9 21.7  61d 168
2022 12 22 15  10 23 31.998   -21 48 53.13  2.2719 2.6555 101.9 21.7  61d 168
2022 12 22 16  10 23 32.862   -21 49 15.91  2.2713 2.6555 101.9 21.7  61d 168
2022 12 22 17  10 23 33.724   -21 49 38.67  2.2708 2.6554 102.0 21.7  61d 168
2022 12 22 18  10 23 34.583   -21 50 01.42  2.2703 2.6553 102.0 21.7  61d 168
2022 12 22 19  10 23 35.441   -21 50 24.16  2.2697 2.6553 102.0 21.7  61d 168
2022 12 22 20  10 23 36.296   -21 50 46.89  2.2692 2.6552 102.1 21.7  61d 168
2022 12 22 21  10 23 37.148   -21 51 09.60  2.2687 2.6552 102.1 21.7  62d 168
2022 12 22 22  10 23 37.999   -21 51 32.30  2.2681 2.6551 102.1 21.7  62d 168
2022 12 22 23  10 23 38.847   -21 51 54.98  2.2676 2.6550 102.2 21.7  62d 168
2022 12 23 00  10 23 39.693   -21 52 17.65  2.2670 2.6550 102.2 21.7  62d 168
2022 12 23 01  10 23 40.537   -21 52 40.31  2.2665 2.6549 102.2 21.7  62d 168
2022 12 23 02  10 23 41.378   -21 53 02.96  2.2660 2.6548 102.2 21.7  62d 168
2022 12 23 03  10 23 42.217   -21 53 25.59  2.2654 2.6548 102.3 21.7  62d 168
2022 12 23 04  10 23 43.054   -21 53 48.21  2.2649 2.6547 102.3 21.7  62d 168
2022 12 23 05  10 23 43.888   -21 54 10.82  2.2644 2.6547 102.3 21.7  62d 168
2022 12 23 06  10 23 44.720   -21 54 33.41  2.2638 2.6546 102.4 21.7  62d 168
2022 12 23 07  10 23 45.550   -21 54 55.99  2.2633 2.6545 102.4 21.7  62d 168
2022 12 23 08  10 23 46.378   -21 55 18.55  2.2628 2.6545 102.4 21.7  62d 168
2022 12 23 09  10 23 47.203   -21 55 41.11  2.2622 2.6544 102.5 21.7  62d 168
2022 12 23 10  10 23 48.026   -21 56 03.64  2.2617 2.6544 102.5 21.7  62d 168
2022 12 23 11  10 23 48.847   -21 56 26.17  2.2612 2.6543 102.5 21.7  62d 168
2022 12 23 12  10 23 49.665   -21 56 48.68  2.2606 2.6542 102.6 21.7  62d 168
2022 12 23 13  10 23 50.481   -21 57 11.18  2.2601 2.6542 102.6 21.7  62d 168
2022 12 23 14  10 23 51.295   -21 57 33.66  2.2596 2.6541 102.6 21.7  62d 168
2022 12 23 15  10 23 52.107   -21 57 56.13  2.2590 2.6541 102.6 21.7  62d 168